Terminal Aerodrome Forecast
Issued by NWS

Home | Current Version | Previous Version | Text Only | Print | Product List | Glossary Off
Versions: 1 2 3 4 5 6 7 8 9 10 11 12 13 14 15 16 17 18 19 20 21 22 23

000
FTUS45 KGGW 312300
TAFGDV
TAF
KGDV 312320Z 0100/0124 VRB06KT P6SM SCT250
      TEMPO 0101/0104 VRB15G30KT TS SCT080CB
     FM010600 VRB05KT P6SM SKC
     FM011200 03008KT P6SM FEW300
      AMD LTD TO CLD VIS AND WIND=

USA.gov is the U.S. government's official web portal to all federal, state and local government web resources and services.